EW7906 Weather Reports


time (UTC)temp
C
wind
direction
speed
KPH
gust
KPH
rain 1hr
cm
rain 24hr
cm
rain mn
cm
humidity
%
barometer
mb
20260901103648 61 230 0.0 0.0 0.00 0.00 0.00 100 1016.0
20260901103128 61 230 0.0 6.4 0.00 0.00 0.00 100 1016.0
20260901102603 61 230 1.6 6.4 0.00 0.00 0.00 100 1016.0
20260901102329 61 192 0.0 0.0 0.00 0.00 0.00 100 1016.0
20260901101557 61 192 0.0 0.0 0.00 0.00 0.00 100 1015.9
20260901101043 61 192 0.0 0.0 0.00 0.00 0.00 100 1015.9
20260901100519 61 192 0.0 0.0 0.00 0.00 0.00 100 1015.9
20260901095958 61 192 0.0 0.0 0.00 0.00 0.00 100 1015.9
20260901095442 62 192 0.0 0.0 0.00 0.00 0.00 100 1016.0
20260901094929 62 192 0.0 0.0 0.00 0.00 0.00 100 1016.1
20260901094659 61 192 0.0 0.0 0.00 0.00 0.00 100 1016.1
20260901093911 62 192 0.0 3.2 0.00 0.00 0.00 100 1016.2
20260901093409 62 192 0.0 3.2 0.00 0.00 0.00 100 1016.3
20260901092833 62 160 0.0 0.0 0.00 0.00 0.00 100 1016.3
20260901092311 62 160 0.0 0.0 0.00 0.00 0.00 100 1016.3
20260901091759 62 160 0.0 0.0 0.00 0.00 0.00 100 1016.2
20260901091238 62 160 0.0 0.0 0.00 0.00 0.00 100 1016.3
20260901090715 62 160 0.0 0.0 0.00 0.00 0.00 100 1016.2
20260901090447 62 160 0.0 0.0 0.00 0.00 0.00 100 1016.1
20260901085701 62 160 0.0 0.0 0.00 0.00 0.00 100 1016.1
20260901085156 62 160 0.0 0.0 0.00 0.00 0.00 100 1016.0
20260901084637 62 160 0.0 0.0 0.00 0.00 0.00 100 1016.0
20260901084134 62 160 0.0 0.0 0.00 0.00 0.00 100 1016.1
20260901083616 62 160 0.0 0.0 0.00 0.00 0.00 100 1016.1
20260901083114 62 160 0.0 0.0 0.00 0.00 0.00 100 1016.0
20260901082612 62 160 0.0 0.0 0.00 0.00 0.00 100 1016.0
20260901082110 62 160 0.0 0.0 0.00 0.00 0.00 100 1016.1
20260901081552 62 160 0.0 0.0 0.00 0.00 0.00 100 1016.1
20260901081034 62 160 0.0 0.0 0.00 0.00 0.00 100 1016.1
20260901080534 62 160 0.0 0.0 0.00 0.00 0.00 100 1016.2
20260901080020 62 160 0.0 0.0 0.00 0.00 0.00 100 1016.2
20260901075516 62 160 0.0 0.0 0.00 0.00 0.00 100 1016.2
20260901074944 62 160 0.0 0.0 0.00 0.00 0.00 100 1016.2
20260901074702 62 160 0.0 0.0 0.00 0.00 0.00 100 1016.2
20260901073926 62 160 0.0 0.0 0.00 0.00 0.00 100 1016.2
20260901073427 62 160 0.0 0.0 0.00 0.00 0.00 100 1016.3
20260901072857 62 160 0.0 4.8 0.00 0.00 0.00 100 1016.2
20260901072349 62 160 0.0 4.8 0.00 0.00 0.00 100 1016.2
20260901072119 62 168 0.0 3.2 0.00 0.00 0.00 100 1016.2
20260901071343 62 168 0.0 3.2 0.00 0.00 0.00 100 1016.2
20260901070829 62 132 0.0 4.8 0.00 0.00 0.00 100 1016.2
20260901070537 62 132 0.0 4.8 0.00 0.00 0.00 100 1016.2
20260901070015 62 129 0.0 6.4 0.00 0.00 0.00 100 1016.2
20260901065233 62 160 0.0 0.0 0.00 0.00 0.00 100 1016.1
20260901064730 62 160 0.0 9.7 0.00 0.00 0.00 100 1016.1
20260901064726 62 160 0.0 0.0 0.00 0.00 0.00 100 1016.1
20260901063717 62 160 0.0 9.7 0.00 0.00 0.00 100 1016.0
20260901063215 62 208 0.0 8.0 0.00 0.00 0.00 100 1016.0
20260901062702 62 112 0.0 9.7 0.00 0.00 0.00 100 1016.0
20260901062147 62 156 3.2 9.7 0.00 0.00 0.00 100 1016.0
20260901061647 62 154 0.0 12.9 0.00 0.00 0.00 100 1015.9
20260901061145 62 158 8.0 12.9 0.00 0.00 0.00 100 1015.9
20260901060642 62 151 3.2 11.3 0.00 0.00 0.00 100 1015.8
20260901060143 62 132 1.6 14.5 0.00 0.00 0.00 100 1015.8
20260901055613 62 105 6.4 16.1 0.00 0.00 0.00 100 1015.7
20260901055104 62 181 1.6 12.9 0.00 0.00 0.00 100 1015.7
20260901054559 62 164 6.4 12.9 0.00 0.00 0.00 100 1015.7
20260901054057 62 146 0.0 9.7 0.00 0.00 0.00 100 1015.6
20260901053540 62 158 4.8 9.7 0.00 0.00 0.00 100 1015.6
20260901053247 62 154 1.6 14.5 0.00 0.00 0.00 100 1015.6
20260901052510 62 105 0.0 14.5 0.00 0.00 0.00 100 1015.6
20260901052000 62 178 0.0 14.5 0.00 0.00 0.00 100 1015.6
20260901051459 62 149 9.7 14.5 0.00 0.00 0.00 100 1015.4
20260901050959 62 181 0.0 12.9 0.00 0.00 0.00 100 1015.4
20260901050456 62 149 3.2 12.9 0.00 0.00 0.00 100 1015.3
20260901050227 62 130 6.4 12.9 0.00 0.00 0.00 100 1015.3
20260901045457 62 161 8.0 12.9 0.00 0.00 0.00 100 1015.3
20260901044956 62 105 1.6 12.9 0.00 0.00 0.00 100 1015.2
20260901044455 62 175 3.2 12.9 0.00 0.00 0.00 100 1015.2
20260901043956 62 135 3.2 12.9 0.00 0.00 0.00 100 1015.2
20260901043456 62 153 3.2 12.9 0.00 0.00 0.00 100 1015.1
20260901042956 62 185 0.0 9.7 0.00 0.00 0.00 100 1015.1
20260901042457 62 130 3.2 14.5 0.00 0.00 0.00 100 1015.1
20260901041955 63 130 0.0 14.5 0.00 0.00 0.00 100 1015.1
20260901041456 63 154 6.4 14.5 0.00 0.00 0.00 100 1015.1
20260901040950 63 133 1.6 9.7 0.00 0.00 0.00 100 1015.1
20260901040442 63 140 0.0 12.9 0.00 0.00 0.00 100 1015.0
20260901035938 63 137 3.2 16.1 0.00 0.00 0.00 100 1015.0
20260901035434 63 163 0.0 16.1 0.00 0.00 0.00 100 1015.0
20260901034936 63 184 1.6 11.3 0.00 0.00 0.00 100 1015.1
20260901034433 63 157 4.8 14.5 0.00 0.00 0.00 100 1014.9
20260901033934 63 137 4.8 14.5 0.00 0.00 0.00 100 1015.0
20260901033436 63 92 0.0 16.1 0.00 0.00 0.00 100 1014.9
20260901033432 63 153 3.2 11.3 0.00 0.00 0.00 100 1015.0
20260901032426 63 92 4.8 17.7 0.00 0.00 0.00 100 1014.9
20260901031916 63 136 6.4 17.7 0.00 0.00 0.00 100 1014.8
20260901031647 63 157 3.2 16.1 0.00 0.00 0.00 100 1014.9
20260901030414 63 115 3.2 20.9 0.00 0.00 0.00 100 1014.7
20260901025857 63 146 8.0 12.9 0.00 0.00 0.00 100 1014.6
20260901025358 63 165 1.6 12.9 0.00 0.00 0.00 100 1014.5
20260901024855 63 149 3.2 11.3 0.00 0.00 0.00 100 1014.4
20260901024356 63 120 0.0 4.8 0.00 0.00 0.00 100 1014.3
20260901023849 63 102 0.0 0.0 0.00 0.00 0.00 100 1014.3
20260901023342 63 102 0.0 0.0 0.00 0.00 0.00 100 1014.2
20260901022838 63 102 0.0 0.0 0.00 0.00 0.00 100 1014.1
20260901022318 63 102 0.0 0.0 0.00 0.00 0.00 100 1014.0
20260901021754 63 102 0.0 0.0 0.00 0.00 0.00 100 1014.0
20260901021244 63 102 0.0 0.0 0.00 0.00 0.00 100 1013.9
20260901020743 63 102 0.0 1.6 0.00 0.00 0.00 100 1013.8
20260901020236 63 102 0.0 4.8 0.00 0.00 0.00 100 1013.8
20260901020232 63 132 1.6 4.8 0.00 0.00 0.00 100 1013.5
20260901015228 63 127 0.0 4.8 0.00 0.00 0.00 100 1013.5
20260901014714 63 127 0.0 0.0 0.00 0.00 0.00 100 1013.4
20260901014206 63 127 0.0 0.0 0.00 0.00 0.00 100 1013.3
20260901013705 63 127 0.0 0.0 0.00 0.00 0.00 100 1013.3
20260901013146 63 127 0.0 0.0 0.00 0.00 0.00 100 1013.3
20260901012624 63 127 0.0 0.0 0.00 0.00 0.00 100 1013.3
20260901012111 63 127 0.0 1.6 0.00 0.00 0.00 100 1013.3
20260901011603 63 127 0.0 4.8 0.00 0.00 0.00 100 1013.2
20260901011327 63 127 1.6 4.8 0.00 0.00 0.00 100 1013.2
20260901010551 63 132 0.0 1.6 0.00 0.00 0.00 100 1013.1
20260901010029 63 132 0.0 4.8 0.00 0.00 0.00 100 1013.1
20260901005743 63 70 0.0 0.0 0.00 0.00 0.00 100 1013.0
20260901005241 63 70 0.0 0.0 0.00 0.00 0.00 100 1013.0
20260901004455 63 70 0.0 0.0 0.00 0.00 0.00 100 1013.1
20260901003931 63 70 0.0 0.0 0.00 0.00 0.00 100 1013.1
20260901003412 64 70 0.0 0.0 0.00 0.00 0.00 100 1013.1
20260901002841 64 70 0.0 0.0 0.00 0.00 0.00 100 1013.0
20260901002551 64 70 0.0 6.4 0.00 0.00 0.00 100 1013.0
20260901001816 64 70 0.0 6.4 0.00 0.00 0.00 100 1012.9
20260901001314 64 149 0.0 0.0 0.00 0.00 0.00 100 1012.9
20260901001028 64 149 0.0 4.8 0.00 0.00 0.00 100 1012.8
20260901000243 64 149 1.6 6.4 0.00 0.00 0.00 100 1012.8
20260831235719 64 149 0.0 6.4 0.00 0.00 0.00 100 1012.8
20260831235434 64 142 0.0 11.3 0.00 0.00 0.00 100 1012.8
20260831234642 64 142 0.0 11.3 0.00 0.00 0.00 100 1012.8
20260831234116 64 116 0.0 9.7 0.00 0.00 0.00 100 1012.8
20260831233558 64 73 4.8 9.7 0.00 0.00 0.00 100 1012.8
20260831233330 65 358 3.2 14.5 0.00 0.00 0.00 100 1012.6
20260831232558 65 116 1.6 14.5 0.00 0.00 0.00 100 1012.8
20260831232035 65 116 3.2 12.9 0.00 0.00 0.00 100 1012.8
20260831231534 65 19 3.2 14.5 0.00 0.00 0.00 100 1012.8
20260831231033 65 125 3.2 14.5 0.00 0.00 0.00 100 1012.8
20260831230530 65 140 3.2 14.5 0.00 0.00 0.00 100 1012.9
20260831230030 65 57 0.0 6.4 0.00 0.00 0.00 100 1012.8
20260831225757 65 43 0.0 6.4 0.00 0.00 0.00 100 1012.8
20260831225002 65 59 0.0 6.4 0.00 0.00 0.00 100 1012.8
20260831224446 64 59 0.0 6.4 0.00 0.00 0.00 100 1012.8
20260831224213 64 59 0.0 3.2 0.00 0.00 0.00 100 1012.9
20260831223435 64 59 0.0 9.7 0.00 0.00 0.00 100 1013.0
20260831222928 64 59 0.0 9.7 0.00 0.00 0.00 100 1013.0
20260831222358 64 139 1.6 11.3 0.00 0.00 0.00 100 1013.0
20260831222346 65 120 6.4 11.3 0.00 0.00 0.00 100 1013.0
20260831221346 65 331 1.6 8.0 0.00 0.00 0.00 100 1013.0
20260831220844 65 129 0.0 1.6 0.00 0.00 0.00 100 1013.1
20260831220345 64 129 0.0 8.0 0.00 0.00 0.00 100 1013.0
20260831220107 64 129 0.0 9.7 0.00 0.00 0.00 100 1013.1
20260831215328 64 147 0.0 9.7 0.00 0.00 0.00 100 1013.2
20260831214827 64 158 0.0 8.0 0.00 0.00 0.00 100 1013.3
20260831214327 64 130 0.0 8.0 0.00 0.00 0.00 100 1013.3
20260831213825 64 29 1.6 9.7 0.00 0.00 0.00 100 1013.3
20260831213312 65 115 0.0 9.7 0.00 0.00 0.00 100 1013.4
20260831212756 65 165 4.8 14.5 0.00 0.00 0.00 100 1013.5
20260831212256 65 146 6.4 14.5 0.00 0.00 0.00 100 1013.5
20260831211756 65 119 6.4 12.9 0.00 0.00 0.00 100 1013.6
20260831211256 65 101 3.2 12.9 0.00 0.00 0.00 100 1013.6
20260831211026 65 158 0.0 9.7 0.00 0.00 0.00 100 1013.8
20260831210242 65 123 1.6 9.7 0.00 0.00 0.00 100 1013.9
20260831205740 65 108 6.4 9.7 0.00 0.00 0.00 100 1013.9
20260831205239 65 22 1.6 12.9 0.00 0.00 0.00 100 1014.0
20260831205000 65 139 1.6 12.9 0.00 0.00 0.00 100 1014.2
20260831204228 65 112 6.4 12.9 0.00 0.00 0.00 100 1014.3
20260831203724 65 143 0.0 9.7 0.00 0.00 0.00 100 1014.3
20260831203226 65 154 3.2 14.5 0.00 0.00 0.00 100 1014.5
20260831202717 65 191 6.4 14.5 0.00 0.00 0.00 100 1014.6
20260831202217 65 229 4.8 14.5 0.00 0.00 0.00 100 1014.6
20260831201947 65 115 6.4 14.5 0.00 0.00 0.00 100 1014.8
20260831201214 65 202 1.6 16.1 0.00 0.00 0.00 100 1014.8
20260831200715 65 167 8.0 17.7 0.00 0.00 0.00 100 1014.9
20260831200219 65 154 6.4 17.7 0.00 0.00 0.00 100 1015.1
20260831200215 65 136 6.4 17.7 0.00 0.00 0.00 100 1015.0
20260831195447 65 187 9.7 17.7 0.00 0.00 0.00 100 1015.2
20260831194711 65 112 0.0 14.5 0.00 0.00 0.00 100 1015.2
20260831194158 65 150 0.0 14.5 0.00 0.00 0.00 100 1015.3
20260831193928 64 144 9.7 16.1 0.00 0.00 0.00 100 1015.4
20260831193156 63 109 6.4 16.1 0.00 0.00 0.00 100 1015.4
20260831192657 65 225 0.0 11.3 0.00 0.00 0.00 100 1015.4
20260831192427 64 206 3.2 16.1 0.00 0.00 0.00 100 1015.7
20260831191657 64 151 8.0 16.1 0.00 0.00 0.00 100 1015.7
20260831191157 65 181 4.8 14.5 0.00 0.00 0.00 100 1015.7
20260831190655 65 132 1.6 14.5 0.00 0.00 0.00 100 1015.9
20260831190150 65 144 8.0 16.1 0.00 0.00 0.00 100 1016.0
20260831185646 65 184 6.4 16.1 0.00 0.00 0.00 100 1016.1
20260831185147 65 125 0.0 16.1 0.00 0.00 0.00 100 1016.1
20260831184644 65 164 8.0 16.1 0.00 0.00 0.00 100 1016.2
20260831184143 65 198 0.0 14.5 0.00 0.00 0.00 100 1016.2
20260831183643 64 174 4.8 14.5 0.00 0.00 0.00 100 1016.3
20260831183142 65 199 0.0 11.3 0.00 0.00 0.00 100 1016.3
20260831182642 64 167 3.2 11.3 0.00 0.00 0.00 100 1016.4
20260831182143 63 118 0.0 14.5 0.00 0.00 0.00 100 1016.4
20260831181636 64 146 6.4 14.5 0.00 0.00 0.00 100 1016.4
20260831181137 64 147 3.2 14.5 0.00 0.00 0.00 100 1016.4
20260831180634 64 246 1.6 12.9 0.00 0.00 0.00 100 1016.5
20260831180131 64 149 4.8 12.9 0.00 0.00 0.00 100 1016.6
20260831175630 63 118 8.0 14.5 0.00 0.00 0.00 100 1016.7
20260831175115 64 189 9.7 14.5 0.00 0.00 0.00 100 1016.8
20260831174616 64 195 3.2 14.5 0.00 0.00 0.00 100 1016.9
20260831174116 64 140 3.2 14.5 0.00 0.00 0.00 100 1017.0
20260831173613 64 136 9.7 14.5 0.00 0.00 0.00 100 1017.0
20260831173113 64 205 0.0 9.7 0.00 0.00 0.00 100 1017.0
20260831172611 63 165 4.8 9.7 0.00 0.00 0.00 100 1017.2
20260831172111 64 180 0.0 17.7 0.00 0.00 0.00 100 1017.2
20260831171611 63 153 3.2 17.7 0.00 0.00 0.00 100 1017.2
20260831171112 64 108 0.0 11.3 0.00 0.00 0.00 100 1017.3
20260831170602 63 108 0.0 14.5 0.00 0.00 0.00 100 1017.3
20260831170332 63 123 9.7 14.5 0.00 0.00 0.00 100 1017.5
20260831165558 63 154 4.8 14.5 0.00 0.00 0.00 100 1017.3
20260831165057 63 142 9.7 14.5 0.00 0.00 0.00 100 1017.3
20260831164827 64 192 1.6 14.5 0.00 0.00 0.00 100 1017.3
20260831164056 63 132 8.0 14.5 0.00 0.00 0.00 100 1017.5
20260831163557 63 164 4.8 14.5 0.00 0.00 0.00 100 1017.5
20260831163101 63 126 3.2 11.3 0.00 0.00 0.00 100 1017.3
20260831163057 63 164 3.2 11.3 0.00 0.00 0.00 100 1017.3
20260831162328 63 348 0.0 14.5 0.00 0.00 0.00 100 1017.3
20260831161545 63 126 9.7 16.1 0.00 0.00 0.00 100 1017.5
20260831161043 63 157 8.0 16.1 0.00 0.00 0.00 100 1017.3
20260831160533 63 160 6.4 11.3 0.00 0.00 0.00 100 1017.3
20260831160304 63 267 0.0 12.9 0.00 0.00 0.00 100 1017.5
20260831155514 63 129 4.8 12.9 0.00 0.00 0.00 100 1017.5
20260831155014 63 122 1.6 12.9 0.00 0.00 0.00 100 1017.5
20260831154509 63 171 1.6 14.5 0.00 0.00 0.00 100 1017.5
20260831154005 63 226 9.7 14.5 0.00 0.00 0.00 100 1017.3
20260831153505 63 180 6.4 12.9 0.00 0.00 0.00 100 1017.3
20260831153005 63 158 3.2 12.9 0.00 0.00 0.00 100 1017.2
20260831152457 63 189 4.8 11.3 0.00 0.00 0.00 100 1017.2
20260831151956 62 150 4.8 12.9 0.00 0.00 0.00 100 1017.2
20260831151456 62 203 6.4 14.5 0.00 0.00 0.00 100 1017.1
20260831150956 62 163 3.2 14.5 0.00 0.00 0.00 100 1017.2
20260831150455 62 210 6.4 11.3 0.00 0.00 0.00 100 1017.1
20260831145955 62 160 6.4 14.5 0.00 0.00 0.00 100 1017.0
20260831145457 62 116 3.2 14.5 0.00 0.00 0.00 100 1017.0
20260831144957 62 172 4.8 11.3 0.00 0.00 0.00 100 1016.9
20260831144457 62 132 6.4 12.9 0.00 0.00 0.00 100 1016.9
20260831143956 62 137 3.2 12.9 0.00 0.00 0.00 100 1017.0
20260831143714 62 153 4.8 9.7 0.00 0.00 0.00 100 1016.9
20260831142944 62 151 0.0 14.5 0.00 0.00 0.00 100 1016.8
20260831142443 62 125 3.2 14.5 0.00 0.00 0.00 100 1016.9
20260831142213 62 198 4.8 14.5 0.00 0.00 0.00 100 1016.9
20260831141442 62 222 3.2 14.5 0.00 0.00 0.00 100 1016.8
20260831140942 62 188 6.4 14.5 0.00 0.00 0.00 100 1016.8
20260831140441 62 191 0.0 14.5 0.00 0.00 0.00 100 1016.7
20260831140146 62 194 0.0 14.5 0.00 0.00 0.00 100 1016.7
20260831135416 62 247 8.0 16.1 0.00 0.00 0.00 100 1016.6
20260831134910 62 171 6.4 16.1 0.00 0.00 0.00 100 1016.6
20260831134642 62 209 8.0 11.3 0.00 0.00 0.00 100 1016.6
20260831134142 62 157 0.0 11.3 0.00 0.00 0.00 100 1016.6
20260831133356 62 157 0.0 11.3 0.00 0.00 0.00 100 1016.5
20260831132851 62 178 0.0 8.0 0.00 0.00 0.00 1 1016.5
20260831132351 62 188 0.0 0.0 0.00 0.00 0.00 3 1016.6
20260831131843 62 188 0.0 0.0 0.00 0.00 0.00 4 1016.6
20260831131333 61 188 0.0 0.0 0.00 0.00 0.00 5 1016.5
20260831131048 61 188 0.0 0.0 0.00 0.00 0.00 6 1016.4
20260831130311 61 188 0.0 0.0 0.00 0.00 0.00 7 1016.4
20260831130043 61 188 0.0 0.0 0.00 0.00 0.00 12 1016.3
20260831125306 61 188 0.0 0.0 0.00 0.00 0.00 16 1016.2
20260831124802 61 188 0.0 0.0 0.00 0.00 0.00 16 1016.2
20260831124507 61 188 0.0 0.0 0.00 0.00 0.00 16 1016.1
20260831123734 61 188 0.0 0.0 0.00 0.00 0.00 16 1016.2
20260831123504 61 188 0.0 0.0 0.00 0.00 0.00 16 1016.1
20260831122724 61 188 0.0 0.0 0.00 0.00 0.00 13 1016.1
20260831122216 61 188 0.0 0.0 0.00 0.00 0.00 10 1016.0
20260831121711 61 188 0.0 0.0 0.00 0.00 0.00 7 1016.1
20260831121210 61 188 0.0 0.0 0.00 0.00 0.00 6 1016.0
20260831120651 61 188 0.0 0.0 0.00 0.00 0.00 5 1016.0
20260831120115 61 188 0.0 0.0 0.00 0.00 0.00 4 1015.9
20260831115827 61 188 0.0 0.0 0.00 0.00 0.00 3 1015.9
20260831115047 61 188 0.0 0.0 0.00 0.00 0.00 3 1015.9
20260831114526 61 188 0.0 0.0 0.00 0.00 0.00 2 1015.9
20260831114024 61 188 0.0 6.4 0.00 0.00 0.00 2 1015.9
20260831113512 61 188 0.0 9.7 0.00 0.00 0.00 2 1016.0
20260831113228 61 192 1.6 11.3 0.00 0.00 0.00 2 1016.0
20260831112456 61 174 0.0 11.3 0.00 0.00 0.00 2 1016.0
20260831111441 61 136 0.0 0.0 0.00 0.00 0.00 2 1015.9
20260831110936 61 136 0.0 0.0 0.00 0.00 0.00 2 1015.9
20260831110437 61 136 0.0 9.7 0.00 0.00 0.00 2 1015.8
20260831105927 61 136 0.0 9.7 0.00 0.00 0.00 1 1015.7
20260831105427 61 213 0.0 9.7 0.00 0.00 0.00 1 1015.8
20260831104924 61 201 0.0 6.4 0.00 0.00 0.00 1 1015.8
20260831104416 61 201 1.6 6.4 0.00 0.00 0.00 100 1015.8